When you browse on this site, cookies collect data to enhance your experience and personalize the content and advertising you see.
Visit our Privacy Policy to learn more. By continuing to use the site, you agree to this use of cookies and data.
  • In United Kingdom
  • List of Countries
  • For 7 days
  • Water Temperature
  • Weather Map
  • Weather Widgets
  • user-avatar
    Login

    Hourly Weather Dance

    Today, 24 February, Monday

    Time Temperature Precipitation Wind Pressure Humidity
    00:00 +2°C° 1.5 mm 3 mps 732 mmHg 94%
    01:00 +1°C° 1.5 mm 4 mps 732 mmHg 95%
    02:00 0°C° 0 mm 5 mps 732 mmHg 94%
    03:00 -1°C° 0.6 mm 6 mps 733 mmHg 94%
    04:00 -1°C° 0.6 mm 6 mps 734 mmHg 93%
    05:00 -1°C° 0.6 mm 6 mps 735 mmHg 93%
    06:00 -1°C° 0.8 mm 7 mps 737 mmHg 87%
    07:00 0°C° 0.8 mm 8 mps 738 mmHg 82%
    08:00 0°C° 0 mm 8 mps 740 mmHg 75%
    09:00 0°C° 0 mm 8 mps 741 mmHg 78%
    10:00 0°C° 0 mm 9 mps 742 mmHg 80%
    11:00 0°C° 0 mm 9 mps 742 mmHg 83%
    12:00 +1°C° 0.1 mm 9 mps 743 mmHg 76%
    13:00 +2°C° 0.1 mm 9 mps 743 mmHg 68%
    14:00 +4°C° 0 mm 8 mps 744 mmHg 61%
    15:00 +2°C° 0 mm 8 mps 744 mmHg 62%
    16:00 +3°C° 0 mm 7 mps 744 mmHg 64%
    17:00 +3°C° 0 mm 6 mps 745 mmHg 65%
    18:00 +2°C° 0 mm 6 mps 745 mmHg 67%
    19:00 +2°C° 0 mm 5 mps 745 mmHg 70%
    20:00 +3°C° 0 mm 4 mps 745 mmHg 73%
    21:00 +1°C° 0 mm 4 mps 745 mmHg 77%
    22:00 +1°C° 0 mm 4 mps 745 mmHg 80%
    23:00 +1°C° 0 mm 4 mps 744 mmHg 84%

    Tomorrow, 25 February, Tuesday

    Time Temperature Precipitation Wind Pressure Humidity
    00:00 +2°C° 0 mm 3 mps 744 mmHg 83%
    01:00 +1°C° 0 mm 3 mps 743 mmHg 83%
    02:00 +1°C° 0 mm 3 mps 743 mmHg 82%
    03:00 0°C° 0.3 mm 4 mps 742 mmHg 86%
    04:00 0°C° 0.3 mm 4 mps 741 mmHg 91%
    05:00 -1°C° 0.3 mm 4 mps 740 mmHg 96%
    06:00 -1°C° 0.5 mm 5 mps 739 mmHg 96%
    07:00 -1°C° 0.5 mm 5 mps 738 mmHg 96%
    08:00 -1°C° 0.5 mm 5 mps 738 mmHg 96%
    09:00 0°C° 0.2 mm 5 mps 737 mmHg 94%
    10:00 +1°C° 0.2 mm 5 mps 737 mmHg 92%
    11:00 +2°C° 0.2 mm 5 mps 736 mmHg 90%
    12:00 +3°C° 0.2 mm 5 mps 736 mmHg 90%
    13:00 +5°C° 0.2 mm 5 mps 736 mmHg 90%
    14:00 +6°C° 0.2 mm 5 mps 735 mmHg 90%
    15:00 +6°C° 0 mm 5 mps 735 mmHg 89%
    16:00 +5°C° 0 mm 6 mps 735 mmHg 88%
    17:00 +7°C° 0 mm 6 mps 734 mmHg 88%
    18:00 +5°C° 0.1 mm 6 mps 734 mmHg 88%
    19:00 +5°C° 0.1 mm 6 mps 734 mmHg 89%
    20:00 +5°C° 0.1 mm 6 mps 733 mmHg 90%
    21:00 +5°C° 0.3 mm 6 mps 733 mmHg 90%
    22:00 +5°C° 0.3 mm 6 mps 733 mmHg 90%
    23:00 +5°C° 0.3 mm 6 mps 732 mmHg 91%

    Day after tomorrow, 26 February, Wednesday

    Time Temperature Precipitation Wind Pressure Humidity
    00:00 +4°C° 0.8 mm 6 mps 732 mmHg 90%
    01:00 +4°C° 0.8 mm 6 mps 732 mmHg 89%
    02:00 +4°C° 0.8 mm 6 mps 732 mmHg 88%
    03:00 +3°C° 0 mm 5 mps 732 mmHg 85%
    04:00 +4°C° 0 mm 4 mps 732 mmHg 82%
    05:00 +3°C° 0 mm 3 mps 732 mmHg 79%
    06:00 +4°C° 0 mm 2 mps 732 mmHg 81%
    07:00 +3°C° 0 mm 2 mps 731 mmHg 83%
    08:00 +3°C° 0 mm 2 mps 731 mmHg 84%
    09:00 +4°C° 0 mm 2 mps 731 mmHg 80%
    10:00 +5°C° 0 mm 2 mps 731 mmHg 75%
    11:00 +5°C° 0 mm 3 mps 731 mmHg 70%
    12:00 +5°C° 0 mm 3 mps 730 mmHg 66%
    13:00 +7°C° 0 mm 3 mps 730 mmHg 62%
    14:00 +7°C° 0 mm 3 mps 730 mmHg 58%
    15:00 +7°C° 0 mm 2 mps 730 mmHg 61%
    16:00 +7°C° 0 mm 2 mps 730 mmHg 64%
    17:00 +7°C° 0 mm 2 mps 729 mmHg 68%
    18:00 +6°C° 0 mm 2 mps 730 mmHg 73%
    19:00 +5°C° 0 mm 2 mps 730 mmHg 78%
    20:00 +5°C° 0 mm 2 mps 730 mmHg 83%
    21:00 +3°C° 0.1 mm 3 mps 730 mmHg 84%
    22:00 +3°C° 0.1 mm 4 mps 731 mmHg 84%
    23:00 +2°C° 0.1 mm 5 mps 731 mmHg 85%

    27 February, Thursday

    Time Temperature Precipitation Wind Pressure Humidity
    00:00 +1°C° 0 mm 5 mps 731 mmHg 81%
    01:00 0°C° 0 mm 5 mps 731 mmHg 77%
    02:00 0°C° 0 mm 4 mps 731 mmHg 74%
    03:00 -1°C° 0 mm 5 mps 731 mmHg 75%
    04:00 -1°C° 0 mm 5 mps 731 mmHg 75%
    05:00 -1°C° 0 mm 5 mps 731 mmHg 76%
    06:00 -1°C° 0 mm 5 mps 732 mmHg 80%
    07:00 -2°C° 0 mm 6 mps 732 mmHg 84%
    08:00 -2°C° 0 mm 6 mps 733 mmHg 88%
    09:00 -2°C° 0.1 mm 6 mps 733 mmHg 81%
    10:00 -1°C° 0.1 mm 6 mps 733 mmHg 75%
    11:00 0°C° 0.1 mm 7 mps 734 mmHg 68%
    12:00 0°C° 0.1 mm 7 mps 734 mmHg 67%
    13:00 0°C° 0.1 mm 7 mps 734 mmHg 66%
    14:00 0°C° 0.1 mm 7 mps 734 mmHg 64%
    15:00 +1°C° 0.1 mm 6 mps 734 mmHg 64%
    16:00 +1°C° 0.1 mm 6 mps 734 mmHg 64%
    17:00 +1°C° 0.1 mm 6 mps 734 mmHg 64%
    18:00 0°C° 0 mm 5 mps 735 mmHg 68%
    19:00 0°C° 0 mm 5 mps 735 mmHg 73%
    20:00 -1°C° 0 mm 4 mps 735 mmHg 77%
    21:00 -2°C° 0 mm 4 mps 735 mmHg 78%
    22:00 -2°C° 0 mm 4 mps 735 mmHg 79%
    23:00 -1°C° 0 mm 3 mps 736 mmHg 80%

    28 February, Friday

    Time Temperature Precipitation Wind Pressure Humidity
    00:00 -1°C° 0 mm 3 mps 736 mmHg 80%
    01:00 -2°C° 0 mm 3 mps 736 mmHg 80%
    02:00 -2°C° 0 mm 3 mps 736 mmHg 79%
    03:00 -2°C° 0 mm 2 mps 736 mmHg 79%
    04:00 -2°C° 0 mm 2 mps 736 mmHg 79%
    05:00 -2°C° 0 mm 2 mps 736 mmHg 79%
    06:00 -2°C° 0 mm 2 mps 737 mmHg 79%
    07:00 -1°C° 0 mm 2 mps 737 mmHg 78%
    08:00 -1°C° 0 mm 2 mps 737 mmHg 78%
    09:00 +1°C° 0 mm 2 mps 738 mmHg 74%
    10:00 +2°C° 0 mm 2 mps 738 mmHg 70%
    11:00 +2°C° 0 mm 3 mps 738 mmHg 66%
    12:00 +2°C° 0 mm 3 mps 739 mmHg 63%
    13:00 +1°C° 0 mm 4 mps 739 mmHg 61%
    14:00 +3°C° 0 mm 4 mps 739 mmHg 59%
    15:00 +3°C° 0 mm 4 mps 739 mmHg 61%
    16:00 +1°C° 0 mm 4 mps 739 mmHg 63%
    17:00 +1°C° 0 mm 4 mps 739 mmHg 65%
    18:00 0°C° 0.1 mm 5 mps 740 mmHg 70%
    19:00 -1°C° 0.1 mm 5 mps 740 mmHg 75%
    20:00 -2°C° 0.1 mm 5 mps 741 mmHg 79%
    21:00 -2°C° 0 mm 5 mps 741 mmHg 81%
    22:00 -2°C° 0 mm 5 mps 742 mmHg 83%
    23:00 -3°C° 0 mm 4 mps 742 mmHg 85%

    29 February, Saturday

    Time Temperature Precipitation Wind Pressure Humidity
    00:00 -3°C° 0 mm 4 mps 743 mmHg 80%
    01:00 -4°C° 0 mm 4 mps 743 mmHg 75%
    02:00 -4°C° 0 mm 4 mps 743 mmHg 70%
    03:00 -4°C° 0 mm 4 mps 743 mmHg 69%
    04:00 -4°C° 0 mm 4 mps 743 mmHg 69%
    05:00 -5°C° 0 mm 4 mps 743 mmHg 68%
    06:00 -4°C° 0 mm 4 mps 744 mmHg 67%
    07:00 -4°C° 0 mm 4 mps 744 mmHg 66%
    08:00 -4°C° 0 mm 4 mps 744 mmHg 64%
    09:00 -3°C° 0 mm 4 mps 744 mmHg 62%
    10:00 -2°C° 0 mm 4 mps 744 mmHg 60%
    11:00 -2°C° 0 mm 4 mps 744 mmHg 58%
    12:00 -1°C° 0 mm 4 mps 743 mmHg 57%
    13:00 0°C° 0 mm 4 mps 743 mmHg 55%
    14:00 +2°C° 0 mm 3 mps 743 mmHg 54%
    15:00 +2°C° 0 mm 3 mps 742 mmHg 55%
    16:00 +2°C° 0 mm 3 mps 742 mmHg 57%
    17:00 +3°C° 0 mm 2 mps 741 mmHg 58%
    18:00 +1°C° 0 mm 3 mps 741 mmHg 62%
    19:00 0°C° 0 mm 4 mps 740 mmHg 65%
    20:00 -1°C° 0 mm 5 mps 739 mmHg 68%
    21:00 -1°C° 0.1 mm 5 mps 739 mmHg 77%
    22:00 -2°C° 0.1 mm 6 mps 738 mmHg 85%
    23:00 -2°C° 0.1 mm 7 mps 738 mmHg 94%
    Show more